Las Vegas, NV

2:37 AM PDT on September 28, 2016 (GMT -0700)
Nellis AFB

Weather History for KLSV - February, 2014

Change the Weather History Date:

Wednesday, February 12, 2014

  Actual Average Record
Temperature  
Mean Temperature 53 °F -  
Max Temperature 67 °F 60 °F 73 °F (2016)
Min Temperature 39 °F 39 °F 28 °F (1999)
Degree Days  
Heating Degree Days 12    
Growing Degree Days 3 (Base 50)    
Moisture  
Dew Point 24 °F    
Average Humidity 33    
Maximum Humidity 50    
Minimum Humidity 18    
Precipitation  
Precipitation 0.00 in - - ()
Sea Level Pressure  
Sea Level Pressure 30.13 in    
Wind  
Wind Speed 2 mph (NNE)    
Max Wind Speed 9 mph    
Max Gust Speed -    
Visibility 10 miles    
Events      
Averages and records for this station are not official NWS values.
T = Trace of Precipitation, MM = Missing Value Source: NWS Daily Summary

Daily Weather History Graph

Daily Weather History Graph

Search for Another Location

Airport or City:

Trip Planner

Search our weather history database for the weather conditions in past years. The results will help you decide how hot, cold, wet, or windy it might be!

Date:

Astronomy

Feb. 12, 2014 Rise Set
Actual Time 6:30 AM PST 5:18 PM PST
Civil Twilight 6:04 AM PST 5:44 PM PST
Nautical Twilight 5:34 AM PST 6:15 PM PST
Astronomical Twilight 5:04 AM PST 6:44 PM PST
Moon 3:37 PM PST (2/12) 4:48 AM PST (2/12)
Length of Visible Light 11h 40m
Length of Day
10h 47m
Waxing Gibbous, 96% of the Moon is Illuminated
Feb 12
Waxing Gibbous
Feb 14
Full
Feb 22
Last Quarter
Mar 1
New
Mar 8
First Quarter

Hourly Weather History & Observations

Time (PST) Temp. Windchill Dew Point Humidity Pressure Visibility Wind Dir Wind Speed Gust Speed Precip Events Conditions
12:58 AM 46.2 °F - 24.6 °F 43% 30.17 in 10.0 mi ENE 1.2 mph - N/A   Clear
1:58 AM 44.1 °F 42.5 °F 24.1 °F 45% 30.18 in 10.0 mi NNE 3.5 mph - N/A   Clear
2:58 AM 43.3 °F - 23.5 °F 46% 30.17 in 10.0 mi NNW 1.2 mph - N/A   Clear
3:58 AM 41.5 °F 37.8 °F 23.0 °F 48% 30.17 in 10.0 mi NW 5.8 mph - N/A   Clear
4:58 AM 41.7 °F - 22.8 °F 47% 30.19 in 10.0 mi NNE 2.3 mph - N/A   Clear
5:58 AM 42.3 °F - 22.5 °F 45% 30.19 in 10.0 mi NNW 1.2 mph - N/A   Clear
6:58 AM 39.7 °F - 22.6 °F 50% 30.21 in 10.0 mi East 2.3 mph - N/A   Clear
7:58 AM 43.9 °F - 23.4 °F 44% 30.22 in 10.0 mi North 2.3 mph - N/A   Clear
8:58 AM 49.1 °F - 24.4 °F 38% 30.22 in 10.0 mi Calm Calm - N/A   Clear
9:58 AM 53.6 °F - 23.9 °F 32% 30.21 in 10.0 mi Calm Calm - N/A   Clear
10:58 AM 58.8 °F - 24.4 °F 27% 30.20 in 10.0 mi Calm Calm - N/A   Clear
11:58 AM 63.0 °F - 23.9 °F 23% 30.16 in 10.0 mi NE 1.2 mph - N/A   Clear
12:58 PM 66.2 °F - 23.9 °F 20% 30.12 in 10.0 mi Calm Calm - N/A   Clear
1:58 PM 66.9 °F - 23.5 °F 19% 30.08 in 10.0 mi East 2.3 mph - N/A   Clear
2:58 PM 67.6 °F - 23.4 °F 19% 30.07 in 10.0 mi Calm Calm - N/A   Clear
3:58 PM 67.8 °F - 23.2 °F 18% 30.06 in 10.0 mi North 4.6 mph - N/A   Clear
4:58 PM 66.2 °F - 25.5 °F 22% 30.06 in 10.0 mi ENE 3.5 mph - N/A   Clear
5:58 PM 60.8 °F - 24.8 °F 25% 30.07 in 10.0 mi ENE 6.9 mph - N/A   Clear
6:58 PM 58.3 °F - 25.0 °F 28% 30.09 in 10.0 mi ENE 9.2 mph - N/A   Clear
7:58 PM 58.8 °F - 25.2 °F 28% 30.07 in 10.0 mi NE 9.2 mph - N/A   Clear
8:58 PM 57.9 °F - 25.2 °F 28% 30.08 in 10.0 mi NE 4.6 mph - N/A   Clear
9:58 PM 58.3 °F - 24.8 °F 28% 30.08 in 10.0 mi Calm Calm - N/A   Clear
10:58 PM 55.2 °F - 25.3 °F 32% 30.08 in 10.0 mi NW 4.6 mph - N/A   Clear
11:58 PM 50.4 °F - 24.6 °F 37% 30.08 in 10.0 mi NNE 3.5 mph - N/A   Clear